DLH480 EDDM-KDEN

Flight info

Callsign DLH480
Flight time N/A
Altitude 36000
Route INPUD2N INPUD Y102 UPALA Z109 BAMAS L604 GASKA DCT MASEK DCT BIGGE L604 RELBI L602 TENLI DCT MIMVA DCT GETNO/N0482F380 DCT LUTOV DCT PIKIL/M085F390 NATA JANJO/N0492F400 DCT 52N070W 50N080W DCT KP12K DCT KP90G DCT FSD DCT KD72A DCT PORDR AALLE4
Aircraft A359/H-SDE2E3GHIJ1J3J4J5LM1ORWXY/LB1D1

Departure

Time N/A
Airport Munich Airport (EDDM)

Arrival

Time 2026-05-04 20:27
Airport Denver International Airport (KDEN)
Time Latitude Longitude Altitude Speed Heading
2026-05-04 10:52 52.27829 6.14635 35983 ft 463 kts 291°
2026-05-04 10:54 52.39320 5.76983 35985 ft 464 kts 292°
2026-05-04 10:56 52.50696 5.39041 35988 ft 465 kts 292°
2026-05-04 10:57 52.53530 5.29496 35992 ft 465 kts 292°
2026-05-04 10:57 52.56359 5.19927 35992 ft 465 kts 292°
2026-05-04 10:58 52.59176 5.10362 35993 ft 465 kts 292°
2026-05-04 10:58 52.61987 5.00779 35992 ft 465 kts 291°
2026-05-04 10:59 52.64794 4.91165 35984 ft 466 kts 292°
2026-05-04 10:59 52.67588 4.81562 35988 ft 467 kts 292°
2026-05-04 11:00 52.70390 4.71895 35989 ft 468 kts 292°
2026-05-04 11:02 52.81525 4.33071 35998 ft 467 kts 292°
2026-05-04 11:05 53.02152 3.59388 36015 ft 473 kts 292°
2026-05-04 11:06 53.04871 3.49500 36016 ft 474 kts 292°
2026-05-04 11:06 53.07623 3.39448 36015 ft 475 kts 292°
2026-05-04 11:10 53.19820 2.65595 36026 ft 475 kts 282°
2026-05-04 11:12 53.26045 2.22671 36041 ft 477 kts 282°
2026-05-04 11:12 53.27583 2.11886 36040 ft 477 kts 282°
2026-05-04 11:13 53.29109 2.01105 36049 ft 477 kts 282°
2026-05-04 11:13 53.30633 1.90257 36046 ft 479 kts 282°
2026-05-04 11:14 53.32137 1.79477 36046 ft 478 kts 282°
2026-05-04 11:16 53.38106 1.35905 36055 ft 482 kts 282°
2026-05-04 11:16 53.39571 1.25007 36055 ft 483 kts 282°
2026-05-04 11:17 53.41048 1.13946 36058 ft 482 kts 282°
2026-05-04 11:19 53.46846 0.69669 36064 ft 488 kts 282°
2026-05-04 11:19 53.48277 0.58526 36066 ft 488 kts 282°
2026-05-04 11:20 53.49697 0.47376 36065 ft 489 kts 283°
2026-05-04 11:20 53.51113 0.36174 36069 ft 492 kts 283°
2026-05-04 11:22 53.56703 -0.08975 36072 ft 494 kts 282°
2026-05-04 11:23 53.58077 -0.20306 36076 ft 494 kts 282°
2026-05-04 11:25 53.62578 -0.58111 36072 ft 494 kts 282°
2026-05-04 11:25 53.63903 -0.69457 36071 ft 494 kts 282°
2026-05-04 11:27 53.69748 -1.20714 36068 ft 497 kts 282°
2026-05-04 11:28 53.71024 -1.32187 36073 ft 497 kts 282°
2026-05-04 11:28 53.72290 -1.43668 36076 ft 497 kts 281°
2026-05-04 11:29 53.73542 -1.55139 36073 ft 497 kts 282°
2026-05-04 11:29 53.74783 -1.66619 36075 ft 497 kts 282°
2026-05-04 11:33 53.83166 -2.47146 36068 ft 497 kts 281°
2026-05-04 11:33 53.84324 -2.58717 36068 ft 497 kts 281°
2026-05-04 11:34 53.85468 -2.70277 36066 ft 498 kts 281°
2026-05-04 11:34 53.86603 -2.81854 36071 ft 498 kts 281°
2026-05-04 11:35 53.87724 -2.93413 36075 ft 498 kts 281°
2026-05-04 11:35 53.88837 -3.05014 36075 ft 498 kts 281°
2026-05-04 11:36 53.89937 -3.16595 36073 ft 498 kts 281°
2026-05-04 11:36 53.91027 -3.28193 36076 ft 498 kts 281°
2026-05-04 11:37 53.92107 -3.39818 36077 ft 498 kts 280°
2026-05-04 11:37 53.93536 -3.51257 36373 ft 494 kts 291°
2026-05-04 11:38 53.94693 -3.56732 36680 ft 491 kts 292°
2026-05-04 11:38 53.95902 -3.62111 37034 ft 486 kts 292°
2026-05-04 11:38 53.97139 -3.67445 37301 ft 484 kts 292°
2026-05-04 11:38 53.98388 -3.72765 37454 ft 484 kts 293°
2026-05-04 11:39 53.99651 -3.78138 37604 ft 484 kts 292°
2026-05-04 11:39 54.00880 -3.83385 37757 ft 483 kts 292°
2026-05-04 11:40 54.08287 -4.15536 38075 ft 488 kts 292°
2026-05-04 11:41 54.09498 -4.20855 38075 ft 488 kts 292°
2026-05-04 11:41 54.11942 -4.31623 38063 ft 487 kts 292°
2026-05-04 11:42 54.14378 -4.42402 38065 ft 487 kts 292°
2026-05-04 11:42 54.16800 -4.53181 38084 ft 486 kts 292°
2026-05-04 11:43 54.19203 -4.63930 38059 ft 484 kts 292°
2026-05-04 11:43 54.21592 -4.74668 38070 ft 484 kts 292°
2026-05-04 11:44 54.23973 -4.85426 38080 ft 484 kts 292°
2026-05-04 11:44 54.26346 -4.96208 38076 ft 484 kts 292°
2026-05-04 11:45 54.28703 -5.06972 38093 ft 484 kts 292°
2026-05-04 11:45 54.31057 -5.17776 38097 ft 484 kts 291°
2026-05-04 11:46 54.33398 -5.28580 38093 ft 484 kts 291°
2026-05-04 11:46 54.35729 -5.39390 38098 ft 484 kts 291°
2026-05-04 11:47 54.38065 -5.50285 38100 ft 483 kts 291°
2026-05-04 11:47 54.40368 -5.61086 38099 ft 481 kts 291°
2026-05-04 11:48 54.42658 -5.71879 38100 ft 481 kts 291°
2026-05-04 11:48 54.44923 -5.82608 38095 ft 481 kts 291°
2026-05-04 11:49 54.47192 -5.93421 38106 ft 481 kts 291°
2026-05-04 11:49 54.49466 -6.04314 38102 ft 481 kts 291°
2026-05-04 11:50 54.51699 -6.15064 38100 ft 481 kts 290°
2026-05-04 11:50 54.53958 -6.26000 38104 ft 481 kts 290°
2026-05-04 11:51 54.56174 -6.36791 38105 ft 481 kts 290°
2026-05-04 11:51 54.58396 -6.47663 38091 ft 481 kts 290°
2026-05-04 11:52 54.60619 -6.58606 38101 ft 480 kts 290°
2026-05-04 11:52 54.62816 -6.69476 38101 ft 480 kts 290°
2026-05-04 11:53 54.64991 -6.80301 38091 ft 480 kts 290°
2026-05-04 11:53 54.67184 -6.91277 38096 ft 480 kts 290°
2026-05-04 11:55 54.75777 -7.34880 38098 ft 480 kts 290°
2026-05-04 11:56 54.77905 -7.45829 38097 ft 480 kts 289°
2026-05-04 11:56 54.80018 -7.56770 38093 ft 477 kts 289°
2026-05-04 11:57 54.82109 -7.67655 38094 ft 476 kts 289°
2026-05-04 11:57 54.84189 -7.78543 38094 ft 475 kts 289°
2026-05-04 11:58 54.86257 -7.89432 38103 ft 475 kts 289°
2026-05-04 11:58 54.88312 -8.00314 38108 ft 475 kts 289°
2026-05-04 11:59 54.90362 -8.11230 38118 ft 475 kts 289°
2026-05-04 11:59 54.92398 -8.22141 38120 ft 475 kts 289°
2026-05-04 12:00 54.94438 -8.33133 38127 ft 474 kts 289°
2026-05-04 12:00 54.96435 -8.43958 38102 ft 474 kts 289°
2026-05-04 12:01 54.98437 -8.54865 38109 ft 471 kts 288°
2026-05-04 12:02 55.05315 -8.92873 38120 ft 470 kts 288°
2026-05-04 12:03 55.06933 -9.01923 38115 ft 470 kts 288°
2026-05-04 12:03 55.08869 -9.12818 38116 ft 470 kts 288°
2026-05-04 12:04 55.10795 -9.23720 38119 ft 470 kts 288°
2026-05-04 12:04 55.12705 -9.34601 38112 ft 470 kts 288°
2026-05-04 12:05 55.14611 -9.45515 38112 ft 469 kts 288°
2026-05-04 12:05 55.16503 -9.56422 38115 ft 468 kts 287°
2026-05-04 12:06 55.18377 -9.67290 38113 ft 466 kts 287°
2026-05-04 12:06 55.20244 -9.78185 38112 ft 466 kts 287°
2026-05-04 12:07 55.22097 -9.89064 38109 ft 466 kts 287°
2026-05-04 12:07 55.23937 -9.99935 38114 ft 466 kts 287°
2026-05-04 12:08 55.25812 -10.10809 38116 ft 466 kts 287°
2026-05-04 12:08 55.27717 -10.21659 38120 ft 465 kts 287°
2026-05-04 12:09 55.29612 -10.32533 38112 ft 465 kts 287°
2026-05-04 12:09 55.31485 -10.43396 38115 ft 466 kts 287°
2026-05-04 12:10 55.33351 -10.54312 38128 ft 466 kts 287°
2026-05-04 12:10 55.35197 -10.65171 38110 ft 464 kts 287°
2026-05-04 12:11 55.37033 -10.76044 38113 ft 464 kts 286°
2026-05-04 12:11 55.38861 -10.86932 38113 ft 464 kts 286°
2026-05-04 12:12 55.40679 -10.97830 38111 ft 464 kts 286°
2026-05-04 12:12 55.42482 -11.08705 38112 ft 464 kts 286°
2026-05-04 12:14 55.49619 -11.52440 38115 ft 464 kts 285°
2026-05-04 12:15 55.51379 -11.63396 38117 ft 464 kts 285°
2026-05-04 12:15 55.53127 -11.74349 38117 ft 464 kts 285°
2026-05-04 12:16 55.54867 -11.85327 38114 ft 464 kts 285°
2026-05-04 12:16 55.56596 -11.96300 38114 ft 464 kts 285°
2026-05-04 12:17 55.58316 -12.07294 38120 ft 464 kts 285°
2026-05-04 12:17 55.60021 -12.18261 38123 ft 464 kts 285°
2026-05-04 12:18 55.61720 -12.29266 38120 ft 464 kts 285°
2026-05-04 12:18 55.63410 -12.40287 38115 ft 464 kts 285°
2026-05-04 12:19 55.65091 -12.51315 38120 ft 464 kts 284°
2026-05-04 12:19 55.66764 -12.62374 38123 ft 463 kts 284°
2026-05-04 12:20 55.68419 -12.73382 38121 ft 462 kts 284°
2026-05-04 12:20 55.70062 -12.84388 38121 ft 462 kts 284°
2026-05-04 12:21 55.71694 -12.95396 38122 ft 462 kts 284°
2026-05-04 12:21 55.73316 -13.06415 38117 ft 462 kts 284°
2026-05-04 12:22 55.74920 -13.17384 38127 ft 462 kts 284°
2026-05-04 12:22 55.76527 -13.28450 38126 ft 462 kts 284°
2026-05-04 12:23 55.78126 -13.39534 38130 ft 462 kts 284°
2026-05-04 12:23 55.79711 -13.50605 38126 ft 462 kts 284°
2026-05-04 12:24 55.81284 -13.61670 38127 ft 462 kts 283°
2026-05-04 12:24 55.82851 -13.72773 38126 ft 461 kts 283°
2026-05-04 12:25 55.84399 -13.83814 38127 ft 460 kts 283°
2026-05-04 12:25 55.85938 -13.94873 38131 ft 460 kts 283°
2026-05-04 12:26 55.87467 -14.05942 38125 ft 460 kts 283°
2026-05-04 12:26 55.88985 -14.17018 38133 ft 460 kts 283°
2026-05-04 12:27 55.90495 -14.28108 38131 ft 460 kts 283°
2026-05-04 12:27 55.91996 -14.39213 38133 ft 461 kts 283°
2026-05-04 12:28 55.93489 -14.50351 38133 ft 461 kts 283°
2026-05-04 12:28 55.94970 -14.61471 38136 ft 461 kts 283°
2026-05-04 12:29 55.96445 -14.72637 38150 ft 461 kts 283°
2026-05-04 12:29 55.97904 -14.83772 38137 ft 460 kts 283°
2026-05-04 12:30 55.99353 -14.94905 38141 ft 461 kts 283°
2026-05-04 12:30 56.01335 -15.05791 38142 ft 462 kts 290°
2026-05-04 12:31 56.03689 -15.16495 38142 ft 462 kts 291°
2026-05-04 12:31 56.06086 -15.27143 38142 ft 462 kts 291°
2026-05-04 12:32 56.09664 -15.43171 38145 ft 462 kts 291°
2026-05-04 12:33 56.12033 -15.53902 38143 ft 462 kts 291°
2026-05-04 12:33 56.14385 -15.64618 38147 ft 462 kts 291°
2026-05-04 12:34 56.16725 -15.75336 38146 ft 462 kts 291°
2026-05-04 12:34 56.19064 -15.86103 38147 ft 462 kts 290°
2026-05-04 12:35 56.21386 -15.96847 38151 ft 462 kts 290°
2026-05-04 12:35 56.23705 -16.07634 38152 ft 462 kts 290°
2026-05-04 12:36 56.26009 -16.18409 38155 ft 462 kts 290°
2026-05-04 12:36 56.28294 -16.29148 38150 ft 462 kts 290°
2026-05-04 12:37 56.30581 -16.39956 38155 ft 462 kts 290°
2026-05-04 12:37 56.32863 -16.50795 38152 ft 462 kts 290°
2026-05-04 12:38 56.35131 -16.61627 38158 ft 462 kts 290°
2026-05-04 12:38 56.37408 -16.72559 38155 ft 462 kts 290°
2026-05-04 12:39 56.39657 -16.83422 38162 ft 462 kts 290°
2026-05-04 12:39 56.41899 -16.94304 38153 ft 462 kts 290°
2026-05-04 12:40 56.44130 -17.05189 38160 ft 462 kts 290°
2026-05-04 12:40 56.46339 -17.16031 38182 ft 463 kts 290°
2026-05-04 12:41 56.48553 -17.26953 38167 ft 462 kts 289°
2026-05-04 12:41 56.50754 -17.37874 38166 ft 462 kts 289°
2026-05-04 12:42 56.52948 -17.48820 38163 ft 462 kts 289°
2026-05-04 12:42 56.55128 -17.59757 38165 ft 462 kts 289°
2026-05-04 12:43 56.57301 -17.70721 38171 ft 463 kts 289°
2026-05-04 12:43 56.59469 -17.81719 38172 ft 463 kts 289°
2026-05-04 12:44 56.61627 -17.92731 38175 ft 463 kts 289°
2026-05-04 12:44 56.63773 -18.03739 38174 ft 463 kts 289°
2026-05-04 12:45 56.65912 -18.14775 38169 ft 463 kts 289°
2026-05-04 12:45 56.68040 -18.25823 38176 ft 463 kts 289°
2026-05-04 12:46 56.70154 -18.36852 38177 ft 463 kts 289°
2026-05-04 12:46 56.71925 -18.46144 38178 ft 463 kts 289°
2026-05-04 12:47 56.74020 -18.57200 38183 ft 463 kts 288°
2026-05-04 12:47 56.76114 -18.68306 38181 ft 463 kts 288°
2026-05-04 12:48 56.78190 -18.79389 38196 ft 463 kts 288°
2026-05-04 12:48 56.80262 -18.90512 38182 ft 462 kts 288°
2026-05-04 12:49 56.82306 -19.01549 38181 ft 462 kts 288°
2026-05-04 12:49 56.84369 -19.12753 38187 ft 463 kts 288°
2026-05-04 12:50 56.86397 -19.23833 38189 ft 463 kts 288°
2026-05-04 12:50 56.88429 -19.35007 38191 ft 463 kts 288°
2026-05-04 12:51 56.90464 -19.46257 38193 ft 463 kts 288°
2026-05-04 12:51 56.92475 -19.57449 38193 ft 463 kts 288°
2026-05-04 12:52 56.94477 -19.68651 38194 ft 463 kts 288°
2026-05-04 12:52 56.96469 -19.79868 38188 ft 462 kts 288°
2026-05-04 12:53 56.98449 -19.91086 38193 ft 463 kts 288°
2026-05-04 12:53 57.00001 -20.02527 38194 ft 462 kts 276°
2026-05-04 12:54 57.00615 -20.14262 38194 ft 463 kts 275°
2026-05-04 12:54 57.01058 -20.25977 38197 ft 463 kts 274°
2026-05-04 12:55 57.01472 -20.37749 38198 ft 463 kts 274°
2026-05-04 12:55 57.01893 -20.49619 38203 ft 463 kts 274°
2026-05-04 12:56 57.02311 -20.61427 38203 ft 464 kts 274°
2026-05-04 12:56 57.02720 -20.73231 38205 ft 464 kts 274°
2026-05-04 12:57 57.03117 -20.85049 38205 ft 464 kts 274°
2026-05-04 12:57 57.03503 -20.96856 38207 ft 464 kts 274°
2026-05-04 12:58 57.03875 -21.08594 38209 ft 464 kts 274°
2026-05-04 12:58 57.04239 -21.20428 38207 ft 465 kts 274°
2026-05-04 12:59 57.04593 -21.32280 38208 ft 465 kts 274°
2026-05-04 12:59 57.04936 -21.44171 38211 ft 465 kts 273°
2026-05-04 13:00 57.05267 -21.56036 38212 ft 465 kts 273°
2026-05-04 13:00 57.05586 -21.67875 38213 ft 465 kts 273°
2026-05-04 13:01 57.05895 -21.79743 38216 ft 465 kts 273°
2026-05-04 13:01 57.06192 -21.91623 38217 ft 466 kts 273°
2026-05-04 13:02 57.06479 -22.03523 38224 ft 466 kts 273°
2026-05-04 13:02 57.06754 -22.15401 38225 ft 466 kts 273°
2026-05-04 13:03 57.07017 -22.27226 38225 ft 465 kts 272°
2026-05-04 13:03 57.07271 -22.39170 38215 ft 465 kts 272°
2026-05-04 13:04 57.07512 -22.51069 38223 ft 466 kts 272°
2026-05-04 13:04 57.07741 -22.62894 38222 ft 466 kts 272°
2026-05-04 13:05 57.07960 -22.74798 38226 ft 466 kts 272°
2026-05-04 13:05 57.08168 -22.86706 38237 ft 466 kts 272°
2026-05-04 13:06 57.08365 -22.98597 38233 ft 466 kts 272°
2026-05-04 13:06 57.08551 -23.10517 38233 ft 466 kts 272°
2026-05-04 13:07 57.08725 -23.22439 38236 ft 467 kts 271°
2026-05-04 13:07 57.08888 -23.34361 38237 ft 467 kts 271°
2026-05-04 13:08 57.09039 -23.46291 38240 ft 467 kts 271°
2026-05-04 13:08 57.09180 -23.58248 38242 ft 467 kts 271°
2026-05-04 13:09 57.09309 -23.70175 38228 ft 467 kts 271°
2026-05-04 13:09 57.09427 -23.82135 38237 ft 468 kts 271°
2026-05-04 13:10 57.09534 -23.94100 38243 ft 468 kts 271°
2026-05-04 13:10 57.09629 -24.06062 38240 ft 468 kts 271°
2026-05-04 13:11 57.09713 -24.18053 38245 ft 468 kts 271°
2026-05-04 13:11 57.09785 -24.30029 38248 ft 468 kts 271°
2026-05-04 13:12 57.09846 -24.42022 38243 ft 469 kts 270°
2026-05-04 13:12 57.09896 -24.53959 38246 ft 470 kts 270°
2026-05-04 13:13 57.09934 -24.66058 38238 ft 470 kts 270°
2026-05-04 13:13 57.09961 -24.78008 38240 ft 470 kts 270°
2026-05-04 13:14 57.09976 -24.90035 38255 ft 470 kts 270°
2026-05-04 13:14 57.09980 -25.02065 38250 ft 470 kts 270°
2026-05-04 13:15 57.09972 -25.14087 38263 ft 470 kts 270°
2026-05-04 13:15 57.09953 -25.26086 38259 ft 470 kts 270°
2026-05-04 13:16 57.09922 -25.38109 38255 ft 470 kts 270°
2026-05-04 13:16 57.09880 -25.50149 38254 ft 470 kts 270°
2026-05-04 13:17 57.09826 -25.62160 38255 ft 470 kts 270°
2026-05-04 13:17 57.09761 -25.74191 38257 ft 471 kts 269°
2026-05-04 13:18 57.09684 -25.86248 38262 ft 471 kts 269°
2026-05-04 13:18 57.09595 -25.98296 38262 ft 471 kts 269°
2026-05-04 13:19 57.09495 -26.10348 38259 ft 471 kts 269°
2026-05-04 13:19 57.09383 -26.22383 38264 ft 471 kts 269°
2026-05-04 13:20 57.09260 -26.34446 38266 ft 472 kts 269°
2026-05-04 13:20 57.09125 -26.46515 38266 ft 472 kts 269°
2026-05-04 13:21 57.08978 -26.58586 38263 ft 472 kts 269°
2026-05-04 13:21 57.08820 -26.70653 38273 ft 472 kts 269°
2026-05-04 13:22 57.08650 -26.82719 38265 ft 472 kts 269°
2026-05-04 13:22 57.08469 -26.94777 38273 ft 472 kts 268°
2026-05-04 13:23 57.08276 -27.06858 38284 ft 472 kts 268°
2026-05-04 13:23 57.08073 -27.18833 38263 ft 472 kts 268°
2026-05-04 13:24 57.07855 -27.30955 38268 ft 472 kts 268°
2026-05-04 13:24 57.07629 -27.42946 38286 ft 472 kts 268°
2026-05-04 13:25 57.07266 -27.61026 38282 ft 472 kts 268°
2026-05-04 13:25 57.07009 -27.73097 38277 ft 472 kts 268°
2026-05-04 13:26 57.06742 -27.85127 38295 ft 473 kts 268°
2026-05-04 13:26 57.06461 -27.97222 38276 ft 473 kts 268°
2026-05-04 13:27 57.06169 -28.09300 38277 ft 473 kts 268°
2026-05-04 13:27 57.05865 -28.21373 38279 ft 473 kts 267°
2026-05-04 13:28 57.05550 -28.33453 38287 ft 473 kts 267°
2026-05-04 13:28 57.05223 -28.45523 38288 ft 473 kts 267°
2026-05-04 13:29 57.04885 -28.57590 38293 ft 473 kts 267°
2026-05-04 13:29 57.04535 -28.69637 38293 ft 473 kts 267°
2026-05-04 13:30 57.04235 -28.79688 38299 ft 473 kts 267°
2026-05-04 13:30 57.03864 -28.91743 38293 ft 473 kts 267°
2026-05-04 13:31 57.03481 -29.03782 38299 ft 473 kts 267°
2026-05-04 13:31 57.03087 -29.15838 38298 ft 473 kts 267°
2026-05-04 13:32 57.02682 -29.27879 38303 ft 473 kts 266°
2026-05-04 13:32 57.02264 -29.39933 38302 ft 474 kts 266°
2026-05-04 13:33 57.01834 -29.52007 38303 ft 473 kts 266°
2026-05-04 13:33 57.01392 -29.64080 38307 ft 474 kts 266°
2026-05-04 13:34 57.00939 -29.76151 38308 ft 474 kts 266°
2026-05-04 13:34 57.00474 -29.88224 38312 ft 475 kts 266°
2026-05-04 13:35 57.00271 -30.06351 38311 ft 474 kts 273°
2026-05-04 13:36 57.00696 -30.18415 38314 ft 474 kts 274°
2026-05-04 13:36 57.01173 -30.30483 38314 ft 474 kts 274°
2026-05-04 13:37 57.01636 -30.42574 38320 ft 475 kts 274°
2026-05-04 13:37 57.02076 -30.54675 38316 ft 475 kts 274°
2026-05-04 13:38 57.02498 -30.66708 38321 ft 475 kts 274°
2026-05-04 13:38 57.02911 -30.78845 38317 ft 475 kts 274°
2026-05-04 13:39 57.03311 -30.90933 38320 ft 476 kts 274°
2026-05-04 13:39 57.03701 -31.03041 38325 ft 476 kts 274°
2026-05-04 13:40 57.04082 -31.15261 38324 ft 476 kts 274°
2026-05-04 13:40 57.04448 -31.27382 38323 ft 476 kts 273°
2026-05-04 13:41 57.04803 -31.39505 38333 ft 476 kts 273°
2026-05-04 13:41 57.05145 -31.51632 38328 ft 476 kts 273°
2026-05-04 13:42 57.05638 -31.69845 38324 ft 476 kts 273°
2026-05-04 13:42 57.05949 -31.81901 38328 ft 475 kts 273°
2026-05-04 13:43 57.06251 -31.94029 38327 ft 476 kts 273°
2026-05-04 13:43 57.06542 -32.06183 38329 ft 476 kts 273°
2026-05-04 13:44 57.06820 -32.18328 38330 ft 476 kts 272°
2026-05-04 13:44 57.07089 -32.30547 38328 ft 476 kts 272°
2026-05-04 13:45 57.07342 -32.42612 38330 ft 476 kts 272°
2026-05-04 13:45 57.07586 -32.54836 38331 ft 476 kts 272°
2026-05-04 13:46 57.07818 -32.66992 38331 ft 476 kts 272°
2026-05-04 13:46 57.08036 -32.79053 38335 ft 476 kts 272°
2026-05-04 13:47 57.08244 -32.91221 38333 ft 476 kts 272°
2026-05-04 13:47 57.08440 -33.03378 38332 ft 476 kts 272°
2026-05-04 13:48 57.08625 -33.15542 38330 ft 475 kts 272°
2026-05-04 13:48 57.08797 -33.27666 38329 ft 475 kts 272°
2026-05-04 13:49 57.08958 -33.39793 38333 ft 475 kts 272°
2026-05-04 13:49 57.09107 -33.51920 38338 ft 475 kts 271°
2026-05-04 13:50 57.09244 -33.64051 38335 ft 474 kts 271°
2026-05-04 13:50 57.09369 -33.76192 38334 ft 475 kts 271°
2026-05-04 13:51 57.09483 -33.88324 38334 ft 474 kts 271°
2026-05-04 13:51 57.09585 -34.00419 38334 ft 473 kts 271°
2026-05-04 13:52 57.09716 -34.18603 38333 ft 473 kts 271°
2026-05-04 13:53 57.09788 -34.30709 38333 ft 473 kts 271°
2026-05-04 13:53 57.09849 -34.42810 38333 ft 473 kts 271°
2026-05-04 13:54 57.09918 -34.60941 38330 ft 472 kts 271°
2026-05-04 13:55 57.09962 -34.78999 38330 ft 471 kts 271°
2026-05-04 13:55 57.09979 -34.96994 38328 ft 471 kts 270°
2026-05-04 13:56 57.09976 -35.09094 38327 ft 471 kts 270°
2026-05-04 13:57 57.09950 -35.27152 38324 ft 470 kts 270°
2026-05-04 13:58 57.09875 -35.51097 38323 ft 469 kts 270°
2026-05-04 13:58 57.09789 -35.69171 38321 ft 469 kts 270°
2026-05-04 13:59 57.09718 -35.81073 38319 ft 469 kts 270°
2026-05-04 14:00 57.09588 -35.99137 38309 ft 469 kts 270°
2026-05-04 14:00 57.09432 -36.17243 38317 ft 468 kts 270°
2026-05-04 14:01 57.09315 -36.29167 38314 ft 468 kts 270°
2026-05-04 14:02 57.09118 -36.47105 38315 ft 468 kts 270°
2026-05-04 14:02 57.08972 -36.59076 38308 ft 468 kts 270°
2026-05-04 14:03 57.08814 -36.71064 38298 ft 468 kts 270°
2026-05-04 14:03 57.08645 -36.83036 38307 ft 469 kts 270°
2026-05-04 14:04 57.08371 -37.00994 38298 ft 469 kts 269°
2026-05-04 14:04 57.08173 -37.12972 38307 ft 469 kts 269°
2026-05-04 14:05 57.07855 -37.30955 38303 ft 469 kts 269°
2026-05-04 14:06 57.07629 -37.42944 38287 ft 469 kts 269°
2026-05-04 14:06 57.07391 -37.54933 38295 ft 470 kts 269°
2026-05-04 14:07 57.07142 -37.66929 38291 ft 469 kts 269°
2026-05-04 14:07 57.06881 -37.78893 38293 ft 469 kts 269°
2026-05-04 14:08 57.06609 -37.90874 38291 ft 469 kts 269°
2026-05-04 14:08 57.06326 -38.02845 38290 ft 469 kts 269°
2026-05-04 14:09 57.05882 -38.20713 38280 ft 469 kts 269°
2026-05-04 14:10 57.05410 -38.38642 38280 ft 468 kts 268°
2026-05-04 14:10 57.05139 -38.48524 38279 ft 468 kts 268°
2026-05-04 14:11 57.04745 -38.62419 38280 ft 468 kts 268°
2026-05-04 14:11 57.04275 -38.78334 38276 ft 467 kts 268°
2026-05-04 14:12 57.03909 -38.90258 38273 ft 467 kts 268°
2026-05-04 14:13 57.03341 -39.08106 38265 ft 467 kts 268°
2026-05-04 14:13 57.02947 -39.20019 38268 ft 467 kts 268°
2026-05-04 14:14 57.02545 -39.31845 38268 ft 467 kts 268°
2026-05-04 14:14 57.01915 -39.49756 38262 ft 467 kts 268°
2026-05-04 14:15 57.01038 -39.73487 38256 ft 464 kts 268°
2026-05-04 14:16 57.00360 -39.91104 38250 ft 464 kts 268°
2026-05-04 14:17 56.99584 -40.08814 38250 ft 464 kts 266°
2026-05-04 14:18 56.98477 -40.26469 38243 ft 464 kts 265°
2026-05-04 14:19 56.97012 -40.49873 38226 ft 461 kts 265°
2026-05-04 14:19 56.96284 -40.61549 38227 ft 461 kts 265°
2026-05-04 14:20 56.95545 -40.73226 38229 ft 461 kts 265°
2026-05-04 14:20 56.94794 -40.84897 38228 ft 460 kts 265°
2026-05-04 14:21 56.93648 -41.02352 38228 ft 460 kts 265°
2026-05-04 14:21 56.92873 -41.13966 38222 ft 460 kts 265°
2026-05-04 14:22 56.92086 -41.25588 38217 ft 460 kts 265°
2026-05-04 14:22 56.91287 -41.37223 38219 ft 460 kts 265°
2026-05-04 14:23 56.90070 -41.54632 38209 ft 460 kts 265°
2026-05-04 14:24 56.89246 -41.66224 38181 ft 460 kts 265°
2026-05-04 14:24 56.88408 -41.77856 38209 ft 463 kts 265°
2026-05-04 14:25 56.87554 -41.89566 38203 ft 465 kts 265°
2026-05-04 14:25 56.86247 -42.07175 38196 ft 466 kts 265°
2026-05-04 14:26 56.85362 -42.18893 38191 ft 466 kts 265°
2026-05-04 14:26 56.84468 -42.30605 38190 ft 466 kts 265°
2026-05-04 14:27 56.83567 -42.42245 38180 ft 464 kts 264°
2026-05-04 14:27 56.82649 -42.53956 38182 ft 463 kts 264°
2026-05-04 14:28 56.81733 -42.65505 38176 ft 462 kts 264°
2026-05-04 14:28 56.80802 -42.77098 38176 ft 462 kts 264°
2026-05-04 14:29 56.78914 -43.00189 38162 ft 457 kts 264°
2026-05-04 14:30 56.77968 -43.11557 38160 ft 447 kts 263°
2026-05-04 14:31 56.76564 -43.28195 38154 ft 441 kts 263°
2026-05-04 14:32 56.74658 -43.50379 38139 ft 441 kts 263°
2026-05-04 14:32 56.73700 -43.61356 38140 ft 441 kts 263°
2026-05-04 14:33 56.72720 -43.72453 38109 ft 441 kts 262°
2026-05-04 14:33 56.71748 -43.83351 38137 ft 438 kts 262°
2026-05-04 14:34 56.70762 -43.94277 38139 ft 437 kts 262°
2026-05-04 14:34 56.69770 -44.05179 38126 ft 437 kts 262°
2026-05-04 14:35 56.68766 -44.16087 38105 ft 437 kts 262°
2026-05-04 14:35 56.67753 -44.26992 38099 ft 437 kts 262°
2026-05-04 14:36 56.66731 -44.37884 38112 ft 437 kts 262°
2026-05-04 14:36 56.65697 -44.48802 38104 ft 439 kts 261°
2026-05-04 14:37 56.64652 -44.59730 38091 ft 439 kts 261°
2026-05-04 14:37 56.63595 -44.70667 38093 ft 439 kts 261°
2026-05-04 14:38 56.62528 -44.81600 38085 ft 439 kts 261°
2026-05-04 14:38 56.61453 -44.92518 38083 ft 440 kts 260°
2026-05-04 14:39 56.60363 -45.03487 38081 ft 441 kts 260°
2026-05-04 14:39 56.59263 -45.14455 38067 ft 445 kts 259°
2026-05-04 14:40 56.57571 -45.31116 38073 ft 448 kts 259°
2026-05-04 14:40 56.56430 -45.42221 38066 ft 448 kts 259°
2026-05-04 14:41 56.55278 -45.53326 38066 ft 448 kts 259°
2026-05-04 14:42 56.52948 -45.75498 38051 ft 448 kts 259°
2026-05-04 14:42 56.51767 -45.86583 38042 ft 448 kts 259°
2026-05-04 14:43 56.50577 -45.97659 38057 ft 448 kts 258°
2026-05-04 14:43 56.49374 -46.08748 38043 ft 449 kts 258°
2026-05-04 14:44 56.48161 -46.19832 38026 ft 449 kts 258°
2026-05-04 14:44 56.46937 -46.30919 38027 ft 449 kts 258°
2026-05-04 14:45 56.45703 -46.42004 38006 ft 450 kts 258°
2026-05-04 14:45 56.44457 -46.53105 38012 ft 451 kts 257°
2026-05-04 14:46 56.43199 -46.64207 38009 ft 451 kts 257°
2026-05-04 14:46 56.41928 -46.75326 37999 ft 451 kts 257°
2026-05-04 14:47 56.40648 -46.86441 37998 ft 451 kts 257°
2026-05-04 14:47 56.39361 -46.97519 37988 ft 451 kts 257°
2026-05-04 14:48 56.38065 -47.08589 37977 ft 452 kts 256°
2026-05-04 14:48 56.36752 -47.19703 37969 ft 453 kts 256°
2026-05-04 14:49 56.35428 -47.30812 37969 ft 453 kts 256°
2026-05-04 14:49 56.34094 -47.41920 37965 ft 453 kts 256°
2026-05-04 14:50 56.32752 -47.53004 37959 ft 453 kts 256°
2026-05-04 14:50 56.31402 -47.64071 37958 ft 453 kts 256°
2026-05-04 14:51 56.30039 -47.75151 37945 ft 453 kts 255°
2026-05-04 14:51 56.28666 -47.86222 37940 ft 454 kts 255°
2026-05-04 14:52 56.27280 -47.97314 37938 ft 454 kts 255°
2026-05-04 14:52 56.25885 -48.08385 37914 ft 454 kts 255°
2026-05-04 14:53 56.24480 -48.19455 37929 ft 454 kts 255°
2026-05-04 14:53 56.23303 -48.28662 37912 ft 454 kts 255°
2026-05-04 14:54 56.21644 -48.41533 37921 ft 455 kts 254°
2026-05-04 14:54 56.20202 -48.52631 37907 ft 457 kts 254°
2026-05-04 14:55 56.18986 -48.61932 37889 ft 457 kts 254°
2026-05-04 14:55 56.17525 -48.73021 37906 ft 457 kts 254°
2026-05-04 14:56 56.16050 -48.84134 37896 ft 457 kts 254°
2026-05-04 14:56 56.14578 -48.95147 37891 ft 457 kts 254°
2026-05-04 14:57 56.13085 -49.06231 37874 ft 457 kts 253°
2026-05-04 14:57 56.11581 -49.17315 37866 ft 458 kts 253°
2026-05-04 14:58 56.10064 -49.28401 37867 ft 459 kts 253°
2026-05-04 14:58 56.08536 -49.39497 37858 ft 458 kts 253°
2026-05-04 14:59 56.06999 -49.50578 37856 ft 458 kts 252°
2026-05-04 15:00 56.04679 -49.67150 37840 ft 458 kts 252°
2026-05-04 15:00 56.03119 -49.78206 37843 ft 457 kts 252°
2026-05-04 15:01 56.00764 -49.94724 37825 ft 457 kts 252°
2026-05-04 15:01 55.98708 -50.05340 37840 ft 453 kts 244°
2026-05-04 15:02 55.96234 -50.15819 37817 ft 454 kts 243°
2026-05-04 15:02 55.93732 -50.26081 37816 ft 454 kts 243°
2026-05-04 15:03 55.91202 -50.36416 37797 ft 454 kts 242°
2026-05-04 15:03 55.88676 -50.46735 37801 ft 454 kts 242°
2026-05-04 15:04 55.86143 -50.57052 37790 ft 454 kts 242°
2026-05-04 15:04 55.83608 -50.67334 37790 ft 454 kts 242°
2026-05-04 15:05 55.81057 -50.77625 37779 ft 454 kts 242°
2026-05-04 15:05 55.78510 -50.87849 37768 ft 456 kts 241°
2026-05-04 15:06 55.75921 -50.98196 37769 ft 457 kts 241°
2026-05-04 15:07 55.72034 -51.13645 37747 ft 457 kts 241°
2026-05-04 15:07 55.69441 -51.23895 37748 ft 457 kts 241°
2026-05-04 15:08 55.66828 -51.34170 37770 ft 457 kts 241°
2026-05-04 15:08 55.64193 -51.44480 37734 ft 462 kts 240°
2026-05-04 15:09 55.61528 -51.54855 37734 ft 464 kts 240°
2026-05-04 15:09 55.58855 -51.65230 37735 ft 464 kts 240°
2026-05-04 15:10 55.54816 -51.80810 37722 ft 464 kts 240°
2026-05-04 15:11 55.50760 -51.96344 37716 ft 464 kts 240°
2026-05-04 15:11 55.48051 -52.06658 37704 ft 464 kts 240°
2026-05-04 15:12 55.45331 -52.16966 37702 ft 464 kts 240°
2026-05-04 15:12 55.42594 -52.27293 37692 ft 464 kts 240°
2026-05-04 15:13 55.39849 -52.37602 37690 ft 464 kts 240°
2026-05-04 15:13 55.37102 -52.47873 37672 ft 466 kts 239°
2026-05-04 15:14 55.34343 -52.58141 37673 ft 467 kts 239°
2026-05-04 15:14 55.31545 -52.68508 37660 ft 468 kts 239°
2026-05-04 15:15 55.28771 -52.78743 37661 ft 468 kts 239°
2026-05-04 15:15 55.25936 -52.89152 37650 ft 468 kts 239°
2026-05-04 15:16 55.21683 -53.04682 37635 ft 470 kts 238°
2026-05-04 15:17 55.17420 -53.20141 37634 ft 470 kts 238°
2026-05-04 15:17 55.13161 -53.35485 37624 ft 470 kts 238°
2026-05-04 15:18 55.10274 -53.45826 37615 ft 471 kts 238°
2026-05-04 15:19 55.05911 -53.61360 37610 ft 474 kts 238°
2026-05-04 15:19 55.01544 -53.76820 37602 ft 474 kts 238°
2026-05-04 15:20 54.98613 -53.87136 37598 ft 474 kts 238°
2026-05-04 15:20 54.95668 -53.97454 37608 ft 476 kts 237°
2026-05-04 15:21 54.92725 -54.07710 37585 ft 479 kts 237°
2026-05-04 15:22 54.88228 -54.23314 37582 ft 479 kts 237°
2026-05-04 15:22 54.83735 -54.38798 37574 ft 479 kts 237°
2026-05-04 15:23 54.80746 -54.49041 37557 ft 481 kts 237°
2026-05-04 15:23 54.77705 -54.59408 37559 ft 484 kts 237°
2026-05-04 15:24 54.71574 -54.80194 37545 ft 485 kts 237°
2026-05-04 15:25 54.68476 -54.90628 37537 ft 484 kts 237°
2026-05-04 15:26 54.63848 -55.06121 37523 ft 487 kts 237°
2026-05-04 15:26 54.59164 -55.21706 37523 ft 487 kts 236°
2026-05-04 15:27 54.54475 -55.37203 37507 ft 487 kts 236°
2026-05-04 15:28 54.49743 -55.52737 37501 ft 489 kts 236°
2026-05-04 15:29 54.44992 -55.68237 37489 ft 489 kts 236°
2026-05-04 15:30 54.33796 -56.04362 37475 ft 493 kts 235°
2026-05-04 15:31 54.28930 -56.19897 37469 ft 493 kts 236°
2026-05-04 15:32 54.20783 -56.45685 37453 ft 493 kts 236°
2026-05-04 15:34 54.13126 -56.69678 37455 ft 493 kts 236°
2026-05-04 15:34 54.08181 -56.85046 37444 ft 493 kts 236°
2026-05-04 15:35 54.03598 -57.00793 37632 ft 503 kts 247°
2026-05-04 15:35 54.02740 -57.06583 37908 ft 505 kts 253°
2026-05-04 15:36 54.01479 -57.18317 38311 ft 505 kts 256°
2026-05-04 15:36 54.00914 -57.24216 38454 ft 504 kts 257°
2026-05-04 15:36 54.00360 -57.30079 38681 ft 501 kts 257°
2026-05-04 15:37 53.99804 -57.35918 38828 ft 501 kts 257°
2026-05-04 15:37 53.99236 -57.41757 38930 ft 501 kts 256°
2026-05-04 15:37 53.98072 -57.53448 39131 ft 501 kts 257°
2026-05-04 15:38 53.97482 -57.59272 39274 ft 500 kts 257°
2026-05-04 15:38 53.96892 -57.65073 39403 ft 500 kts 256°
2026-05-04 15:38 53.95695 -57.76717 39450 ft 501 kts 256°
2026-05-04 15:39 53.94487 -57.88378 39449 ft 501 kts 256°
2026-05-04 15:40 53.92653 -58.05862 39452 ft 504 kts 256°
2026-05-04 15:40 53.91410 -58.17578 39452 ft 504 kts 256°
2026-05-04 15:41 53.90158 -58.29268 39462 ft 505 kts 256°
2026-05-04 15:41 53.88888 -58.40997 39446 ft 507 kts 256°
2026-05-04 15:42 53.87606 -58.52729 39451 ft 507 kts 256°
2026-05-04 15:42 53.86310 -58.64488 39467 ft 507 kts 256°
2026-05-04 15:43 53.85001 -58.76241 39442 ft 509 kts 255°
2026-05-04 15:43 53.83675 -58.88039 39427 ft 511 kts 255°
2026-05-04 15:44 53.82343 -58.99788 39439 ft 510 kts 255°
2026-05-04 15:44 53.80989 -59.11609 39437 ft 513 kts 255°
2026-05-04 15:45 53.79621 -59.23448 39436 ft 513 kts 255°
2026-05-04 15:45 53.78232 -59.35368 39444 ft 513 kts 255°
2026-05-04 15:46 53.76851 -59.47106 39438 ft 512 kts 255°
2026-05-04 15:46 53.75440 -59.58986 39430 ft 512 kts 255°
2026-05-04 15:47 53.74036 -59.70702 39455 ft 512 kts 255°
2026-05-04 15:47 53.72601 -59.82577 39439 ft 513 kts 255°
2026-05-04 15:48 53.71173 -59.94286 39443 ft 513 kts 255°
2026-05-04 15:48 53.68996 -60.11951 39447 ft 512 kts 255°
2026-05-04 15:49 53.67535 -60.23682 39445 ft 511 kts 255°
2026-05-04 15:49 53.66061 -60.35414 39445 ft 511 kts 255°
2026-05-04 15:50 53.64574 -60.47148 39451 ft 511 kts 254°
2026-05-04 15:50 53.63078 -60.58854 39454 ft 511 kts 254°
2026-05-04 15:51 53.61570 -60.70550 39453 ft 511 kts 254°
2026-05-04 15:51 53.60050 -60.82255 39457 ft 511 kts 254°
2026-05-04 15:52 53.58520 -60.93937 39457 ft 511 kts 254°
2026-05-04 15:52 53.56981 -61.05593 39465 ft 511 kts 254°
2026-05-04 15:53 53.55424 -61.17282 39473 ft 511 kts 254°
2026-05-04 15:53 53.53863 -61.28919 39461 ft 510 kts 254°
2026-05-04 15:54 53.52296 -61.40506 39462 ft 509 kts 254°
2026-05-04 15:54 53.50722 -61.52049 39463 ft 508 kts 254°
2026-05-04 15:55 53.49125 -61.63676 39461 ft 507 kts 254°
2026-05-04 15:55 53.47531 -61.75181 39459 ft 507 kts 254°
2026-05-04 15:56 53.45933 -61.86629 39471 ft 507 kts 254°
2026-05-04 15:56 53.44315 -61.98136 39460 ft 507 kts 254°
2026-05-04 15:57 53.42675 -62.09713 39460 ft 507 kts 254°
2026-05-04 15:57 53.41043 -62.21148 39465 ft 508 kts 253°
2026-05-04 15:58 53.39376 -62.32735 39459 ft 509 kts 254°
2026-05-04 15:58 53.37704 -62.44277 39462 ft 510 kts 254°
2026-05-04 15:59 53.36023 -62.55798 39484 ft 510 kts 253°
2026-05-04 15:59 53.34325 -62.67343 39462 ft 511 kts 253°
2026-05-04 16:00 53.32627 -62.78805 39472 ft 512 kts 253°
2026-05-04 16:00 53.30902 -62.90367 39473 ft 512 kts 253°
2026-05-04 16:01 53.29165 -63.01922 39482 ft 512 kts 253°
2026-05-04 16:01 53.27423 -63.13430 39481 ft 512 kts 253°
2026-05-04 16:02 53.25666 -63.24958 39481 ft 512 kts 253°
2026-05-04 16:03 53.23005 -63.42254 39479 ft 514 kts 253°
2026-05-04 16:03 53.21213 -63.53802 39495 ft 514 kts 253°
2026-05-04 16:04 53.19407 -63.65358 39489 ft 514 kts 252°
2026-05-04 16:04 53.16682 -63.82642 39501 ft 514 kts 252°
2026-05-04 16:05 53.14851 -63.94153 39501 ft 514 kts 252°
2026-05-04 16:06 53.12081 -64.11420 39514 ft 514 kts 252°
2026-05-04 16:07 53.08358 -64.34356 39529 ft 513 kts 252°
2026-05-04 16:08 53.04591 -64.57243 39526 ft 512 kts 251°
2026-05-04 16:09 52.99840 -64.85685 39543 ft 510 kts 251°
2026-05-04 16:10 52.96012 -65.08270 39559 ft 506 kts 251°
2026-05-04 16:11 52.92159 -65.30709 39573 ft 506 kts 251°
2026-05-04 16:12 52.86326 -65.64144 39585 ft 502 kts 251°
2026-05-04 16:13 52.82395 -65.86329 39591 ft 502 kts 251°
2026-05-04 16:14 52.78428 -66.08446 39605 ft 503 kts 251°
2026-05-04 16:16 52.73400 -66.36104 39610 ft 503 kts 251°
2026-05-04 16:17 52.68641 -66.61902 39621 ft 503 kts 250°
2026-05-04 16:18 52.64522 -66.83943 39629 ft 503 kts 250°
2026-05-04 16:19 52.59315 -67.11439 39636 ft 503 kts 250°
2026-05-04 16:20 52.54065 -67.38767 39643 ft 503 kts 250°
2026-05-04 16:22 52.48732 -67.66133 39641 ft 501 kts 250°
2026-05-04 16:23 52.42295 -67.98656 39652 ft 501 kts 250°
2026-05-04 16:25 52.35767 -68.31091 39657 ft 499 kts 250°
2026-05-04 16:26 52.28062 -68.68697 39655 ft 498 kts 249°
2026-05-04 16:28 52.22489 -68.95462 39653 ft 498 kts 249°
2026-05-04 16:29 52.14581 -69.32846 39664 ft 498 kts 249°
2026-05-04 16:31 52.08873 -69.59402 39671 ft 497 kts 249°
2026-05-04 16:32 52.01953 -69.91147 39666 ft 497 kts 248°
2026-05-04 16:33 51.98075 -70.12636 39677 ft 496 kts 254°
2026-05-04 16:34 51.95612 -70.28929 39674 ft 496 kts 255°
2026-05-04 16:35 51.90608 -70.61436 39681 ft 495 kts 254°
2026-05-04 16:36 51.88079 -70.77576 39684 ft 495 kts 254°
2026-05-04 16:37 51.85522 -70.93739 39685 ft 494 kts 254°
2026-05-04 16:38 51.82078 -71.15254 39687 ft 494 kts 253°
2026-05-04 16:39 51.77722 -71.42086 39693 ft 493 kts 253°
2026-05-04 16:40 51.74189 -71.63538 39698 ft 492 kts 253°
2026-05-04 16:41 51.69751 -71.90108 39703 ft 492 kts 253°
2026-05-04 16:43 51.65242 -72.16696 39687 ft 492 kts 253°
2026-05-04 16:43 51.62508 -72.32620 39687 ft 491 kts 253°
2026-05-04 16:45 51.56981 -72.64378 39688 ft 491 kts 253°
2026-05-04 16:46 51.52311 -72.90778 39691 ft 491 kts 253°
2026-05-04 16:47 51.48542 -73.11807 39691 ft 490 kts 253°
2026-05-04 16:48 51.44737 -73.32792 39692 ft 490 kts 253°
2026-05-04 16:49 51.40895 -73.53736 39692 ft 490 kts 252°
2026-05-04 16:50 51.37023 -73.74608 39678 ft 489 kts 252°
2026-05-04 16:51 51.34099 -73.90220 39678 ft 488 kts 252°
2026-05-04 16:52 51.30169 -74.10996 39672 ft 488 kts 252°
2026-05-04 16:53 51.27196 -74.26558 39660 ft 488 kts 252°
2026-05-04 16:54 51.23203 -74.47265 39642 ft 487 kts 252°
2026-05-04 16:55 51.17167 -74.78146 39629 ft 486 kts 252°
2026-05-04 16:56 51.12078 -75.03803 39619 ft 486 kts 252°
2026-05-04 16:57 51.09345 -75.17450 39611 ft 485 kts 252°
2026-05-04 16:58 51.05230 -75.37811 39607 ft 484 kts 251°
2026-05-04 17:00 50.98998 -75.68250 39603 ft 483 kts 251°
2026-05-04 17:01 50.93756 -75.93498 39598 ft 481 kts 251°
2026-05-04 17:02 50.89544 -76.13558 39597 ft 479 kts 251°
2026-05-04 17:03 50.86365 -76.28565 39593 ft 479 kts 251°
2026-05-04 17:03 50.83176 -76.43509 39578 ft 478 kts 251°
2026-05-04 17:04 50.78894 -76.63407 39572 ft 477 kts 251°
2026-05-04 17:05 50.74590 -76.83213 39584 ft 477 kts 251°
2026-05-04 17:06 50.71342 -76.98035 39575 ft 475 kts 251°
2026-05-04 17:07 50.68436 -77.11210 39569 ft 476 kts 251°
2026-05-04 17:07 50.65901 -77.22635 39565 ft 475 kts 251°
2026-05-04 17:08 50.62611 -77.37365 39564 ft 475 kts 251°
2026-05-04 17:09 50.60408 -77.47172 39562 ft 475 kts 251°
2026-05-04 17:09 50.58205 -77.56936 39560 ft 475 kts 251°
2026-05-04 17:10 50.52644 -77.81375 39555 ft 474 kts 250°
2026-05-04 17:11 50.50406 -77.91135 39557 ft 474 kts 250°
2026-05-04 17:12 50.47043 -78.05715 39555 ft 473 kts 250°
2026-05-04 17:13 50.41395 -78.29979 39546 ft 474 kts 250°
2026-05-04 17:14 50.36848 -78.49312 39544 ft 474 kts 250°
2026-05-04 17:15 50.33408 -78.63831 39546 ft 474 kts 250°
2026-05-04 17:16 50.28800 -78.83121 39542 ft 473 kts 249°
2026-05-04 17:17 50.24168 -79.02343 39526 ft 473 kts 249°
2026-05-04 17:18 50.19511 -79.21501 39520 ft 473 kts 249°
2026-05-04 17:19 50.14818 -79.40637 39501 ft 473 kts 249°
2026-05-04 17:20 50.10096 -79.59729 39487 ft 472 kts 249°
2026-05-04 17:20 50.06532 -79.74031 39480 ft 472 kts 249°
2026-05-04 17:21 50.01762 -79.93033 39471 ft 472 kts 248°
2026-05-04 17:22 49.99373 -80.02503 39464 ft 470 kts 249°
2026-05-04 17:23 49.94806 -80.21392 39452 ft 469 kts 249°
2026-05-04 17:24 49.91358 -80.35586 39438 ft 469 kts 249°
2026-05-04 17:25 49.86712 -80.54474 39429 ft 469 kts 249°
2026-05-04 17:26 49.82025 -80.73366 39420 ft 468 kts 249°
2026-05-04 17:27 49.76159 -80.96786 39419 ft 466 kts 249°
2026-05-04 17:28 49.71445 -81.15435 39409 ft 466 kts 249°
2026-05-04 17:29 49.64319 -81.43337 39392 ft 466 kts 249°
2026-05-04 17:31 49.58356 -81.66424 39376 ft 462 kts 248°
2026-05-04 17:32 49.52371 -81.89362 39366 ft 463 kts 248°
2026-05-04 17:33 49.47537 -82.07722 39333 ft 464 kts 248°
2026-05-04 17:34 49.42684 -82.26009 39306 ft 462 kts 248°
2026-05-04 17:35 49.36581 -82.48801 39301 ft 461 kts 248°
2026-05-04 17:36 49.34130 -82.57891 39360 ft 461 kts 248°
2026-05-04 17:36 49.31679 -82.66951 39361 ft 461 kts 248°
2026-05-04 17:37 49.29213 -82.76026 39345 ft 461 kts 248°
2026-05-04 17:37 49.26747 -82.85069 39357 ft 459 kts 248°
2026-05-04 17:38 49.24280 -82.94079 39354 ft 458 kts 248°
2026-05-04 17:38 49.21808 -83.03074 39361 ft 457 kts 248°
2026-05-04 17:39 49.18516 -83.14996 39352 ft 458 kts 248°
2026-05-04 17:39 49.16033 -83.23952 39354 ft 458 kts 247°
2026-05-04 17:40 49.13546 -83.32886 39356 ft 457 kts 247°
2026-05-04 17:40 49.11049 -83.41826 39346 ft 457 kts 247°
2026-05-04 17:41 49.08544 -83.50755 39350 ft 458 kts 247°
2026-05-04 17:41 49.06032 -83.59680 39358 ft 458 kts 246°
2026-05-04 17:42 49.03519 -83.68570 39353 ft 457 kts 246°
2026-05-04 17:42 49.00993 -83.77476 39352 ft 457 kts 246°
2026-05-04 17:43 48.98464 -83.86363 39350 ft 458 kts 246°
2026-05-04 17:43 48.95911 -83.95297 39351 ft 462 kts 246°
2026-05-04 17:44 48.93337 -84.04273 39333 ft 462 kts 246°
2026-05-04 17:44 48.90760 -84.13224 39353 ft 462 kts 246°
2026-05-04 17:45 48.88169 -84.22192 39333 ft 462 kts 246°
2026-05-04 17:45 48.85581 -84.31113 39336 ft 462 kts 246°
2026-05-04 17:46 48.82974 -84.40067 39312 ft 463 kts 247°
2026-05-04 17:46 48.80364 -84.48999 39311 ft 463 kts 247°
2026-05-04 17:47 48.77750 -84.57914 39312 ft 463 kts 247°
2026-05-04 17:47 48.75120 -84.66850 39312 ft 463 kts 246°
2026-05-04 17:48 48.72489 -84.75756 39308 ft 463 kts 246°
2026-05-04 17:48 48.69852 -84.84651 39312 ft 463 kts 247°
2026-05-04 17:49 48.67207 -84.93537 39314 ft 463 kts 246°
2026-05-04 17:49 48.64555 -85.02419 39311 ft 463 kts 246°
2026-05-04 17:50 48.61899 -85.11279 39315 ft 463 kts 246°
2026-05-04 17:50 48.59229 -85.20155 39311 ft 463 kts 246°
2026-05-04 17:51 48.56563 -85.28987 39308 ft 463 kts 246°
2026-05-04 17:51 48.53883 -85.37831 39322 ft 463 kts 246°
2026-05-04 17:52 48.51199 -85.46657 39322 ft 462 kts 246°
2026-05-04 17:52 48.48517 -85.55445 39325 ft 462 kts 246°
2026-05-04 17:53 48.45820 -85.64251 39329 ft 462 kts 246°
2026-05-04 17:53 48.43119 -85.73041 39323 ft 462 kts 246°
2026-05-04 17:54 48.40416 -85.81805 39314 ft 462 kts 246°
2026-05-04 17:54 48.37701 -85.90577 39333 ft 463 kts 246°
2026-05-04 17:55 48.34977 -85.99343 39324 ft 462 kts 246°
2026-05-04 17:55 48.32252 -86.08085 39344 ft 462 kts 246°
2026-05-04 17:56 48.29525 -86.16806 39348 ft 462 kts 246°
2026-05-04 17:56 48.26780 -86.25552 39347 ft 463 kts 246°
2026-05-04 17:57 48.24030 -86.34285 39352 ft 463 kts 246°
2026-05-04 17:57 48.21267 -86.43025 39346 ft 463 kts 246°
2026-05-04 17:58 48.18496 -86.51762 39346 ft 463 kts 246°
2026-05-04 17:58 48.15727 -86.60460 39351 ft 463 kts 246°
2026-05-04 17:59 48.12958 -86.69128 39349 ft 461 kts 246°
2026-05-04 18:00 48.08805 -86.82077 39354 ft 460 kts 246°
2026-05-04 18:00 48.06024 -86.90712 39353 ft 460 kts 246°
2026-05-04 18:01 48.03244 -86.99312 39352 ft 460 kts 245°
2026-05-04 18:01 48.00452 -87.07923 39360 ft 460 kts 245°
2026-05-04 18:02 47.96256 -87.20805 39354 ft 460 kts 245°
2026-05-04 18:02 47.93460 -87.29353 39359 ft 459 kts 245°
2026-05-04 18:03 47.90657 -87.37897 39359 ft 459 kts 245°
2026-05-04 18:03 47.87843 -87.46442 39360 ft 459 kts 245°
2026-05-04 18:04 47.85033 -87.54949 39359 ft 459 kts 245°
2026-05-04 18:05 47.80793 -87.67731 39359 ft 459 kts 245°
2026-05-04 18:05 47.77962 -87.76231 39347 ft 459 kts 245°
2026-05-04 18:06 47.73732 -87.88878 39363 ft 457 kts 245°
2026-05-04 18:06 47.70893 -87.97331 39362 ft 458 kts 245°
2026-05-04 18:07 47.68044 -88.05786 39366 ft 458 kts 245°
2026-05-04 18:07 47.65193 -88.14222 39363 ft 458 kts 245°
2026-05-04 18:08 47.62334 -88.22652 39370 ft 458 kts 245°
2026-05-04 18:08 47.59460 -88.31097 39379 ft 458 kts 245°
2026-05-04 18:09 47.53718 -88.47892 39395 ft 457 kts 245°
2026-05-04 18:10 47.50835 -88.56283 39399 ft 457 kts 245°
2026-05-04 18:10 47.47953 -88.64643 39399 ft 457 kts 245°
2026-05-04 18:11 47.45061 -88.73008 39412 ft 457 kts 245°
2026-05-04 18:11 47.42169 -88.81344 39412 ft 457 kts 245°
2026-05-04 18:12 47.39257 -88.89715 39412 ft 457 kts 245°
2026-05-04 18:12 47.36358 -88.98017 39422 ft 456 kts 245°
2026-05-04 18:13 47.33467 -89.06273 39428 ft 455 kts 245°
2026-05-04 18:14 47.29102 -89.18687 39442 ft 455 kts 245°
2026-05-04 18:14 47.26185 -89.26952 39442 ft 455 kts 245°
2026-05-04 18:15 47.20327 -89.43470 39454 ft 455 kts 244°
2026-05-04 18:16 47.17390 -89.51713 39445 ft 455 kts 244°
2026-05-04 18:16 47.14462 -89.59904 39456 ft 452 kts 244°
2026-05-04 18:17 47.10070 -89.72145 39470 ft 452 kts 244°
2026-05-04 18:18 47.05661 -89.84379 39472 ft 452 kts 244°
2026-05-04 18:18 47.02724 -89.92496 39479 ft 452 kts 244°
2026-05-04 18:19 46.99950 -89.99914 39480 ft 453 kts 240°
2026-05-04 18:19 46.98181 -90.03888 39487 ft 454 kts 239°
2026-05-04 18:20 46.96721 -90.07078 39459 ft 454 kts 239°
2026-05-04 18:20 46.93168 -90.14695 39495 ft 451 kts 238°
2026-05-04 18:21 46.89042 -90.23468 39500 ft 450 kts 238°
2026-05-04 18:21 46.85490 -90.31018 39500 ft 450 kts 238°
2026-05-04 18:22 46.82515 -90.37334 39485 ft 450 kts 238°
2026-05-04 18:22 46.78961 -90.44866 39498 ft 451 kts 238°
2026-05-04 18:23 46.75399 -90.52391 39498 ft 452 kts 238°
2026-05-04 18:23 46.71815 -90.59943 39495 ft 452 kts 238°
2026-05-04 18:24 46.68235 -90.67464 39500 ft 452 kts 238°
2026-05-04 18:24 46.64644 -90.74989 39502 ft 452 kts 238°
2026-05-04 18:25 46.61051 -90.82499 39497 ft 452 kts 238°
2026-05-04 18:25 46.57456 -90.89991 39506 ft 451 kts 238°
2026-05-04 18:26 46.53865 -90.97455 39489 ft 449 kts 238°
2026-05-04 18:26 46.50286 -91.04874 39504 ft 448 kts 238°
2026-05-04 18:27 46.46704 -91.12281 39501 ft 448 kts 238°
2026-05-04 18:27 46.43116 -91.19681 39510 ft 448 kts 238°
2026-05-04 18:28 46.39529 -91.27059 39508 ft 449 kts 238°
2026-05-04 18:28 46.35926 -91.34449 39501 ft 449 kts 238°
2026-05-04 18:29 46.32330 -91.41805 39531 ft 447 kts 238°
2026-05-04 18:29 46.28735 -91.49140 39537 ft 447 kts 238°
2026-05-04 18:30 46.23336 -91.60123 39545 ft 447 kts 238°
2026-05-04 18:31 46.19731 -91.67432 39551 ft 447 kts 238°
2026-05-04 18:31 46.16121 -91.74730 39547 ft 447 kts 238°
2026-05-04 18:32 46.12520 -91.81993 39544 ft 445 kts 238°
2026-05-04 18:32 46.08918 -91.89237 39538 ft 444 kts 238°
2026-05-04 18:33 46.05314 -91.96469 39544 ft 444 kts 238°
2026-05-04 18:33 46.01714 -92.03673 39552 ft 444 kts 238°
2026-05-04 18:34 45.98101 -92.10887 39563 ft 444 kts 238°
2026-05-04 18:34 45.94485 -92.18085 39548 ft 444 kts 238°
2026-05-04 18:35 45.90864 -92.25274 39578 ft 443 kts 238°
2026-05-04 18:35 45.87250 -92.32433 39580 ft 443 kts 238°
2026-05-04 18:36 45.83638 -92.39571 39580 ft 442 kts 238°
2026-05-04 18:36 45.80020 -92.46703 39581 ft 442 kts 238°
2026-05-04 18:37 45.76392 -92.53835 39577 ft 442 kts 238°
2026-05-04 18:37 45.72773 -92.60931 39578 ft 442 kts 238°
2026-05-04 18:38 45.69145 -92.68028 39575 ft 441 kts 238°
2026-05-04 18:38 45.65517 -92.75107 39566 ft 441 kts 238°
2026-05-04 18:39 45.61894 -92.82158 39618 ft 441 kts 238°
2026-05-04 18:39 45.58260 -92.89215 39601 ft 441 kts 238°
2026-05-04 18:40 45.54626 -92.96252 39603 ft 441 kts 238°
2026-05-04 18:40 45.50991 -93.03274 39609 ft 440 kts 238°
2026-05-04 18:41 45.47348 -93.10295 39619 ft 440 kts 238°
2026-05-04 18:41 45.43711 -93.17286 39619 ft 440 kts 238°
2026-05-04 18:42 45.40059 -93.24289 39617 ft 440 kts 238°
2026-05-04 18:42 45.36420 -93.31251 39620 ft 440 kts 238°
2026-05-04 18:43 45.32760 -93.38236 39584 ft 440 kts 238°
2026-05-04 18:43 45.29109 -93.45185 39601 ft 440 kts 238°
2026-05-04 18:44 45.25441 -93.52151 39603 ft 440 kts 238°
2026-05-04 18:44 45.21777 -93.59090 39608 ft 440 kts 238°
2026-05-04 18:45 45.18108 -93.66024 39609 ft 440 kts 238°
2026-05-04 18:45 45.14426 -93.72964 39609 ft 440 kts 238°
2026-05-04 18:46 45.10756 -93.79867 39642 ft 440 kts 238°
2026-05-04 18:46 45.07071 -93.86779 39645 ft 440 kts 238°
2026-05-04 18:47 45.03380 -93.93686 39644 ft 440 kts 238°
2026-05-04 18:47 44.99691 -94.00575 39658 ft 440 kts 238°
2026-05-04 18:48 44.96241 -94.07676 39663 ft 437 kts 242°
2026-05-04 18:48 44.92997 -94.14906 39679 ft 437 kts 242°
2026-05-04 18:49 44.89717 -94.22118 39681 ft 436 kts 242°
2026-05-04 18:49 44.86400 -94.29264 39692 ft 435 kts 242°
2026-05-04 18:50 44.83069 -94.36381 39691 ft 435 kts 242°
2026-05-04 18:50 44.79738 -94.43474 39690 ft 435 kts 241°
2026-05-04 18:51 44.76405 -94.50560 39685 ft 434 kts 241°
2026-05-04 18:51 44.73061 -94.57652 39669 ft 435 kts 241°
2026-05-04 18:52 44.69714 -94.64737 39661 ft 435 kts 241°
2026-05-04 18:52 44.66371 -94.71792 39775 ft 435 kts 241°
2026-05-04 18:52 44.64692 -94.75331 39940 ft 435 kts 241°
2026-05-04 18:53 44.63012 -94.78867 40071 ft 435 kts 241°
2026-05-04 18:53 44.61326 -94.82413 40227 ft 436 kts 241°
2026-05-04 18:53 44.59642 -94.85948 40354 ft 436 kts 241°
2026-05-04 18:53 44.57959 -94.89477 40489 ft 437 kts 241°
2026-05-04 18:54 44.56265 -94.93024 40615 ft 437 kts 241°
2026-05-04 18:54 44.54595 -94.96518 40737 ft 437 kts 241°
2026-05-04 18:54 44.52898 -95.00063 40859 ft 438 kts 241°
2026-05-04 18:54 44.51198 -95.03610 40984 ft 438 kts 241°
2026-05-04 18:55 44.49471 -95.07209 41077 ft 438 kts 241°
2026-05-04 18:55 44.46075 -95.14272 41373 ft 437 kts 241°
2026-05-04 18:55 44.44396 -95.17756 41446 ft 438 kts 241°
2026-05-04 18:56 44.42692 -95.21291 41549 ft 439 kts 240°
2026-05-04 18:56 44.40983 -95.24832 41648 ft 439 kts 240°
2026-05-04 18:56 44.37553 -95.31926 41690 ft 443 kts 240°
2026-05-04 18:57 44.34082 -95.39090 41690 ft 447 kts 240°
2026-05-04 18:57 44.30574 -95.46302 41688 ft 447 kts 240°
2026-05-04 18:58 44.27097 -95.53434 41749 ft 446 kts 240°
2026-05-04 18:58 44.23605 -95.60581 41747 ft 445 kts 240°
2026-05-04 18:59 44.20108 -95.67723 41722 ft 445 kts 240°
2026-05-04 18:59 44.16614 -95.74840 41744 ft 445 kts 240°
2026-05-04 19:00 44.13113 -95.81954 41753 ft 445 kts 240°
2026-05-04 19:00 44.09614 -95.89048 41758 ft 445 kts 240°
2026-05-04 19:01 44.06670 -95.95004 41737 ft 445 kts 240°
2026-05-04 19:01 44.02591 -96.03235 41746 ft 445 kts 240°
2026-05-04 19:02 43.99670 -96.09112 41744 ft 445 kts 240°
2026-05-04 19:02 43.96138 -96.16206 41773 ft 444 kts 240°
2026-05-04 19:03 43.92612 -96.23270 41776 ft 444 kts 240°
2026-05-04 19:03 43.89095 -96.30300 41776 ft 444 kts 240°
2026-05-04 19:04 43.85572 -96.37325 41766 ft 444 kts 240°
2026-05-04 19:04 43.82041 -96.44349 41755 ft 444 kts 240°
2026-05-04 19:05 43.78512 -96.51350 41740 ft 444 kts 240°
2026-05-04 19:05 43.74971 -96.58361 41730 ft 443 kts 240°
2026-05-04 19:06 43.71433 -96.65347 41733 ft 443 kts 240°
2026-05-04 19:06 43.67892 -96.72325 41741 ft 443 kts 239°
2026-05-04 19:07 43.64355 -96.79282 41740 ft 443 kts 240°
2026-05-04 19:07 43.60895 -96.86333 41745 ft 443 kts 241°
2026-05-04 19:08 43.57492 -96.93390 41779 ft 442 kts 241°
2026-05-04 19:08 43.54074 -97.00437 41775 ft 442 kts 241°
2026-05-04 19:09 43.50640 -97.07463 41773 ft 442 kts 240°
2026-05-04 19:09 43.47198 -97.14478 41778 ft 442 kts 240°
2026-05-04 19:10 43.43754 -97.21480 41780 ft 442 kts 240°
2026-05-04 19:10 43.40305 -97.28475 41779 ft 442 kts 240°
2026-05-04 19:11 43.36852 -97.35465 41787 ft 442 kts 240°
2026-05-04 19:11 43.33417 -97.42400 41793 ft 442 kts 240°
2026-05-04 19:12 43.28209 -97.52887 41792 ft 442 kts 240°
2026-05-04 19:13 43.24760 -97.59810 41791 ft 442 kts 240°
2026-05-04 19:13 43.21261 -97.66817 41803 ft 442 kts 240°
2026-05-04 19:14 43.17783 -97.73764 41801 ft 442 kts 240°
2026-05-04 19:14 43.14324 -97.80658 41800 ft 442 kts 240°
2026-05-04 19:15 43.10839 -97.87589 41807 ft 442 kts 240°
2026-05-04 19:15 43.07346 -97.94518 41806 ft 442 kts 240°
2026-05-04 19:16 43.03857 -98.01423 41809 ft 442 kts 240°
2026-05-04 19:16 43.00328 -98.08393 41810 ft 442 kts 240°
2026-05-04 19:17 42.96844 -98.15256 41811 ft 443 kts 240°
2026-05-04 19:17 42.93308 -98.22206 41803 ft 442 kts 240°
2026-05-04 19:18 42.89815 -98.29057 41812 ft 442 kts 240°
2026-05-04 19:18 42.86297 -98.35938 41793 ft 442 kts 240°
2026-05-04 19:19 42.82751 -98.42859 41802 ft 442 kts 240°
2026-05-04 19:19 42.79221 -98.49733 41802 ft 442 kts 240°
2026-05-04 19:20 42.75693 -98.56588 41809 ft 442 kts 240°
2026-05-04 19:20 42.72165 -98.63427 41809 ft 442 kts 240°
2026-05-04 19:21 42.68620 -98.70284 41792 ft 442 kts 240°
2026-05-04 19:21 42.65075 -98.77124 41823 ft 442 kts 240°
2026-05-04 19:22 42.61534 -98.83940 41821 ft 442 kts 240°
2026-05-04 19:22 42.58004 -98.90720 41821 ft 442 kts 240°
2026-05-04 19:23 42.54461 -98.97510 41823 ft 442 kts 240°
2026-05-04 19:23 42.50902 -99.04315 41815 ft 442 kts 240°
2026-05-04 19:24 42.47351 -99.11090 41804 ft 442 kts 240°
2026-05-04 19:24 42.43785 -99.17878 41804 ft 441 kts 240°
2026-05-04 19:25 42.40226 -99.24637 41801 ft 441 kts 240°
2026-05-04 19:25 42.36671 -99.31375 41802 ft 441 kts 240°
2026-05-04 19:26 42.33081 -99.38162 41804 ft 441 kts 240°
2026-05-04 19:26 42.29515 -99.44888 41792 ft 441 kts 239°
2026-05-04 19:27 42.25929 -99.51639 41798 ft 441 kts 239°
2026-05-04 19:27 42.22348 -99.58362 41795 ft 441 kts 239°
2026-05-04 19:28 42.18767 -99.65073 41787 ft 441 kts 240°
2026-05-04 19:28 42.15187 -99.71766 41794 ft 440 kts 240°
2026-05-04 19:29 42.11600 -99.78457 41797 ft 440 kts 240°
2026-05-04 19:29 42.08015 -99.85132 41784 ft 440 kts 240°
2026-05-04 19:30 42.04435 -99.91780 41794 ft 439 kts 240°
2026-05-04 19:30 42.00842 -99.98439 41793 ft 439 kts 240°
2026-05-04 19:31 41.97128 -100.04985 41793 ft 442 kts 236°
2026-05-04 19:31 41.93129 -100.11254 41791 ft 442 kts 235°
2026-05-04 19:32 41.89113 -100.17502 41790 ft 441 kts 236°
2026-05-04 19:32 41.85143 -100.23781 41783 ft 441 kts 236°
2026-05-04 19:33 41.81204 -100.30056 41787 ft 440 kts 236°
2026-05-04 19:33 41.77265 -100.36330 41827 ft 440 kts 236°
2026-05-04 19:34 41.73320 -100.42595 41824 ft 440 kts 236°
2026-05-04 19:34 41.71711 -100.45146 41795 ft 440 kts 236°
2026-05-04 19:35 41.70252 -100.47455 41818 ft 440 kts 236°
2026-05-04 19:35 41.66302 -100.53699 41810 ft 439 kts 236°
2026-05-04 19:36 41.62356 -100.59926 41790 ft 438 kts 236°
2026-05-04 19:36 41.58445 -100.66083 41782 ft 437 kts 236°
2026-05-04 19:37 41.54483 -100.72310 41784 ft 437 kts 236°
2026-05-04 19:37 41.50565 -100.78454 41776 ft 437 kts 236°
2026-05-04 19:38 41.46621 -100.84627 41766 ft 437 kts 236°
2026-05-04 19:38 41.42676 -100.90785 41783 ft 436 kts 236°
2026-05-04 19:39 41.38763 -100.96939 41771 ft 433 kts 239°
2026-05-04 19:39 41.35686 -101.03678 41779 ft 422 kts 251°
2026-05-04 19:40 41.33720 -101.09662 41776 ft 422 kts 252°
2026-05-04 19:40 41.31415 -101.16839 41774 ft 422 kts 252°
2026-05-04 19:41 41.29102 -101.24028 41771 ft 422 kts 251°
2026-05-04 19:41 41.26792 -101.31185 41752 ft 422 kts 251°
2026-05-04 19:42 41.24475 -101.38348 41782 ft 421 kts 251°
2026-05-04 19:42 41.22163 -101.45488 41792 ft 420 kts 252°
2026-05-04 19:43 41.19878 -101.52626 41802 ft 420 kts 252°
2026-05-04 19:43 41.17593 -101.59735 41812 ft 418 kts 252°
2026-05-04 19:44 41.15306 -101.66833 41824 ft 417 kts 252°
2026-05-04 19:44 41.13025 -101.73895 41819 ft 416 kts 252°
2026-05-04 19:45 41.10747 -101.80931 41818 ft 416 kts 251°
2026-05-04 19:45 41.08461 -101.87972 41826 ft 416 kts 251°
2026-05-04 19:46 41.06175 -101.94995 41808 ft 416 kts 251°
2026-05-04 19:46 41.03877 -102.02033 41803 ft 416 kts 251°
2026-05-04 19:47 41.01582 -102.09048 41780 ft 415 kts 251°
2026-05-04 19:47 40.99280 -102.16063 41765 ft 415 kts 251°
2026-05-04 19:48 40.96981 -102.23055 41731 ft 415 kts 251°
2026-05-04 19:48 40.94682 -102.30036 41734 ft 415 kts 251°
2026-05-04 19:49 40.92374 -102.37020 41387 ft 412 kts 251°
2026-05-04 19:49 40.91228 -102.40476 40859 ft 409 kts 251°
2026-05-04 19:49 40.90084 -102.43927 40267 ft 407 kts 251°
2026-05-04 19:49 40.88949 -102.47345 39701 ft 404 kts 251°
2026-05-04 19:50 40.87827 -102.50721 39087 ft 402 kts 252°
2026-05-04 19:50 40.86703 -102.54101 38555 ft 399 kts 252°
2026-05-04 19:50 40.85590 -102.57442 37876 ft 397 kts 252°
2026-05-04 19:50 40.84475 -102.60794 36845 ft 401 kts 251°
2026-05-04 19:51 40.83339 -102.64211 35669 ft 411 kts 251°
2026-05-04 19:51 40.82181 -102.67682 34817 ft 415 kts 251°
2026-05-04 19:51 40.81016 -102.71159 34238 ft 412 kts 250°
2026-05-04 19:51 40.79857 -102.74610 33716 ft 409 kts 250°
2026-05-04 19:52 40.78708 -102.78030 33107 ft 406 kts 250°
2026-05-04 19:52 40.77570 -102.81414 32596 ft 401 kts 250°
2026-05-04 19:52 40.76453 -102.84734 32187 ft 395 kts 250°
2026-05-04 19:52 40.75341 -102.88037 31646 ft 392 kts 250°
2026-05-04 19:53 40.74242 -102.91307 31297 ft 392 kts 250°
2026-05-04 19:53 40.73123 -102.94619 30938 ft 395 kts 249°
2026-05-04 19:53 40.72006 -102.97918 30549 ft 396 kts 249°
2026-05-04 19:53 40.70882 -103.01232 30185 ft 395 kts 249°
2026-05-04 19:54 40.69761 -103.04532 29818 ft 394 kts 249°
2026-05-04 19:54 40.68640 -103.07829 29412 ft 393 kts 248°
2026-05-04 19:54 40.67526 -103.11101 29028 ft 392 kts 248°
2026-05-04 19:54 40.66408 -103.14384 28715 ft 390 kts 248°
2026-05-04 19:55 40.65304 -103.17620 28348 ft 389 kts 248°
2026-05-04 19:55 40.64195 -103.20871 27980 ft 387 kts 248°
2026-05-04 19:55 40.63093 -103.24100 27625 ft 386 kts 248°
2026-05-04 19:55 40.62001 -103.27306 27257 ft 385 kts 248°
2026-05-04 19:56 40.60903 -103.30515 26892 ft 384 kts 248°
2026-05-04 19:56 40.59816 -103.33682 26546 ft 383 kts 248°
2026-05-04 19:56 40.58724 -103.36867 26175 ft 381 kts 248°
2026-05-04 19:56 40.57633 -103.40044 25812 ft 380 kts 248°
2026-05-04 19:57 40.56548 -103.43204 25447 ft 379 kts 248°
2026-05-04 19:57 40.55460 -103.46368 25075 ft 379 kts 248°
2026-05-04 19:57 40.54375 -103.49529 24725 ft 380 kts 248°
2026-05-04 19:57 40.53286 -103.52705 24342 ft 381 kts 248°
2026-05-04 19:58 40.52200 -103.55856 23984 ft 379 kts 248°
2026-05-04 19:58 40.51111 -103.59014 23646 ft 378 kts 248°
2026-05-04 19:58 40.50027 -103.62153 23284 ft 377 kts 248°
2026-05-04 19:58 40.48942 -103.65295 22898 ft 376 kts 247°
2026-05-04 19:59 40.47863 -103.68414 22547 ft 374 kts 247°
2026-05-04 19:59 40.46792 -103.71509 22218 ft 372 kts 247°
2026-05-04 19:59 40.45719 -103.74587 21863 ft 370 kts 246°
2026-05-04 19:59 40.44495 -103.77556 21559 ft 369 kts 241°
2026-05-04 20:00 40.43181 -103.80446 21288 ft 368 kts 241°
2026-05-04 20:00 40.41863 -103.83311 21012 ft 366 kts 240°
2026-05-04 20:00 40.40547 -103.86170 20723 ft 365 kts 240°
2026-05-04 20:00 40.39235 -103.89022 20449 ft 365 kts 240°
2026-05-04 20:01 40.37925 -103.91867 20146 ft 365 kts 240°
2026-05-04 20:01 40.36621 -103.94697 19953 ft 356 kts 240°
2026-05-04 20:01 40.35374 -103.97401 19708 ft 339 kts 240°
2026-05-04 20:01 40.34185 -103.99976 19444 ft 319 kts 240°
2026-05-04 20:02 40.33039 -104.02460 19198 ft 320 kts 240°
2026-05-04 20:02 40.31846 -104.04932 18951 ft 322 kts 236°
2026-05-04 20:02 40.30302 -104.07056 18730 ft 324 kts 223°
2026-05-04 20:02 40.28570 -104.08947 18759 ft 326 kts 221°
2026-05-04 20:03 40.26813 -104.10815 18803 ft 324 kts 221°
2026-05-04 20:03 40.25039 -104.12704 18826 ft 325 kts 221°
2026-05-04 20:03 40.23277 -104.14582 18857 ft 326 kts 221°
2026-05-04 20:03 40.21541 -104.16435 18891 ft 327 kts 221°
2026-05-04 20:04 40.19786 -104.18308 18928 ft 327 kts 221°
2026-05-04 20:04 40.18018 -104.20195 18953 ft 327 kts 221°
2026-05-04 20:04 40.16252 -104.22080 18947 ft 327 kts 221°
2026-05-04 20:04 40.14497 -104.23952 18775 ft 325 kts 221°
2026-05-04 20:05 40.12761 -104.25810 18551 ft 323 kts 221°
2026-05-04 20:05 40.11011 -104.27670 18307 ft 322 kts 221°
2026-05-04 20:05 40.09283 -104.29505 18081 ft 322 kts 221°
2026-05-04 20:05 40.07548 -104.31348 17849 ft 321 kts 221°
2026-05-04 20:06 40.05821 -104.33181 17598 ft 320 kts 221°
2026-05-04 20:06 40.04093 -104.35016 17353 ft 319 kts 221°
2026-05-04 20:06 40.02379 -104.36834 17108 ft 317 kts 221°
2026-05-04 20:06 40.00665 -104.38651 16871 ft 317 kts 221°
2026-05-04 20:07 39.98972 -104.40447 16665 ft 311 kts 221°
2026-05-04 20:07 39.97322 -104.42192 16541 ft 299 kts 221°
2026-05-04 20:07 39.95740 -104.43869 16419 ft 288 kts 221°
2026-05-04 20:07 39.94216 -104.45487 16293 ft 277 kts 221°
2026-05-04 20:08 39.92748 -104.47041 16184 ft 267 kts 221°
2026-05-04 20:08 39.91321 -104.48526 16047 ft 261 kts 218°
2026-05-04 20:08 39.89707 -104.49644 15952 ft 266 kts 200°
2026-05-04 20:08 39.87876 -104.50007 15843 ft 268 kts 185°
2026-05-04 20:09 39.86002 -104.50049 15718 ft 269 kts 183°
2026-05-04 20:09 39.84125 -104.49999 15592 ft 270 kts 180°
2026-05-04 20:09 39.82262 -104.49910 15267 ft 269 kts 181°
2026-05-04 20:09 39.80394 -104.49805 15056 ft 268 kts 179°
2026-05-04 20:10 39.78522 -104.49705 14894 ft 268 kts 180°
2026-05-04 20:10 39.76666 -104.49620 14717 ft 268 kts 180°
2026-05-04 20:10 39.74803 -104.49516 14555 ft 268 kts 180°
2026-05-04 20:10 39.72943 -104.49423 14379 ft 267 kts 180°
2026-05-04 20:11 39.71096 -104.49343 14224 ft 266 kts 180°
2026-05-04 20:11 39.69248 -104.49257 14047 ft 266 kts 180°
2026-05-04 20:11 39.67405 -104.49175 13876 ft 265 kts 179°
2026-05-04 20:11 39.65555 -104.49111 13637 ft 265 kts 180°
2026-05-04 20:12 39.63717 -104.49039 13369 ft 264 kts 180°
2026-05-04 20:12 39.61886 -104.48966 13110 ft 263 kts 180°
2026-05-04 20:12 39.60062 -104.48905 12830 ft 262 kts 181°
2026-05-04 20:12 39.58243 -104.48840 12549 ft 261 kts 180°
2026-05-04 20:13 39.56423 -104.48758 12294 ft 260 kts 181°
2026-05-04 20:13 39.54621 -104.48688 12024 ft 257 kts 179°
2026-05-04 20:13 39.52845 -104.48632 11899 ft 254 kts 180°
2026-05-04 20:13 39.51076 -104.48565 11882 ft 255 kts 180°
2026-05-04 20:14 39.49310 -104.48507 11878 ft 254 kts 180°
2026-05-04 20:14 39.47540 -104.48455 11882 ft 254 kts 180°
2026-05-04 20:14 39.45765 -104.48392 11878 ft 254 kts 180°
2026-05-04 20:14 39.44002 -104.48329 11875 ft 254 kts 180°
2026-05-04 20:15 39.42232 -104.48278 11871 ft 254 kts 181°
2026-05-04 20:15 39.40474 -104.48217 11861 ft 254 kts 180°
2026-05-04 20:15 39.38705 -104.48189 11860 ft 253 kts 185°
2026-05-04 20:15 39.36987 -104.48622 11846 ft 251 kts 204°
2026-05-04 20:16 39.35547 -104.49846 11843 ft 247 kts 229°
2026-05-04 20:16 39.34720 -104.51742 11843 ft 245 kts 252°
2026-05-04 20:16 39.34154 -104.53832 11844 ft 247 kts 248°
2026-05-04 20:16 39.33596 -104.55928 11846 ft 248 kts 254°
2026-05-04 20:17 39.33242 -104.58113 11841 ft 248 kts 264°
2026-05-04 20:17 39.33366 -104.60420 11858 ft 273 kts 284°
2026-05-04 20:17 39.34253 -104.62561 11836 ft 268 kts 313°
2026-05-04 20:17 39.35800 -104.63737 11837 ft 254 kts 346°
2026-05-04 20:18 39.37499 -104.64097 11909 ft 240 kts 350°
2026-05-04 20:18 39.39091 -104.64540 11933 ft 230 kts 339°
2026-05-04 20:18 39.40564 -104.65305 11951 ft 228 kts 333°
2026-05-04 20:18 39.42034 -104.66093 11948 ft 230 kts 339°
2026-05-04 20:19 39.43611 -104.66434 11958 ft 231 kts 354°
2026-05-04 20:19 39.45220 -104.66520 11964 ft 232 kts 358°
2026-05-04 20:19 39.46292 -104.66522 11968 ft 232 kts 358°
2026-05-04 20:19 39.48454 -104.66502 11836 ft 232 kts 358°
2026-05-04 20:20 39.49540 -104.66489 11688 ft 231 kts 358°
2026-05-04 20:20 39.51147 -104.66466 11447 ft 231 kts 359°
2026-05-04 20:20 39.52756 -104.66439 11206 ft 230 kts 358°
2026-05-04 20:20 39.54349 -104.66413 10943 ft 229 kts 358°
2026-05-04 20:21 39.55925 -104.66386 10620 ft 228 kts 358°
2026-05-04 20:21 39.57510 -104.66360 10284 ft 226 kts 359°
2026-05-04 20:21 39.60634 -104.66313 9623 ft 221 kts 357°
2026-05-04 20:22 39.62110 -104.66296 9396 ft 206 kts 357°
2026-05-04 20:22 39.63512 -104.66284 9154 ft 192 kts 357°
2026-05-04 20:22 39.64810 -104.66270 8907 ft 181 kts 358°
2026-05-04 20:22 39.66022 -104.66255 8685 ft 173 kts 358°
2026-05-04 20:23 39.67200 -104.66240 8444 ft 165 kts 356°
2026-05-04 20:23 39.68325 -104.66227 8231 ft 158 kts 356°
2026-05-04 20:23 39.69401 -104.66215 8032 ft 153 kts 356°
2026-05-04 20:23 39.70451 -104.66202 7852 ft 151 kts 355°
2026-05-04 20:24 39.71498 -104.66191 7655 ft 149 kts 357°
2026-05-04 20:24 39.72552 -104.66178 7469 ft 150 kts 357°
2026-05-04 20:24 39.73588 -104.66165 7271 ft 149 kts 357°
2026-05-04 20:24 39.74613 -104.66153 7072 ft 147 kts 357°
2026-05-04 20:25 39.75660 -104.66142 6910 ft 151 kts 357°
2026-05-04 20:25 39.76710 -104.66127 6706 ft 151 kts 355°
2026-05-04 20:25 39.77751 -104.66115 6519 ft 151 kts 355°
2026-05-04 20:25 39.78811 -104.66104 6357 ft 150 kts 358°
2026-05-04 20:26 39.79834 -104.66090 6171 ft 147 kts 356°
2026-05-04 20:26 39.80881 -104.66070 5839 ft 143 kts 355°
2026-05-04 20:26 39.81871 -104.66059 5655 ft 142 kts 356°
2026-05-04 20:26 39.82851 -104.66049 5496 ft 140 kts 356°
2026-05-04 20:27 39.83778 -104.66050 5414 ft 129 kts
2026-05-04 20:27 39.84443 -104.66036 5415 ft 54 kts
2026-05-04 20:27 39.84577 -104.66035 5409 ft 7 kts
2026-05-04 20:27 39.84646 -104.66044 5410 ft 12 kts 349°
2026-05-04 20:28 39.84741 -104.66068 5410 ft 15 kts 349°
2026-05-04 20:28 39.84844 -104.66113 5399 ft 17 kts 331°
2026-05-04 20:28 39.84956 -104.66191 5403 ft 19 kts 332°
2026-05-04 20:28 39.85027 -104.66232 5402 ft 10 kts 343°
2026-05-04 20:29 39.85102 -104.66243 5402 ft 12 kts
2026-05-04 20:29 39.85193 -104.66245 5394 ft 11 kts 354°
2026-05-04 20:29 39.85242 -104.66250 5394 ft 0 kts
2026-05-04 20:30 39.85252 -104.66248 5393 ft 6 kts
2026-05-04 20:30 39.85328 -104.66241 5399 ft 12 kts
2026-05-04 20:30 39.85419 -104.66241 5394 ft 14 kts
2026-05-04 20:30 39.85524 -104.66240 5397 ft 16 kts
2026-05-04 20:31 39.85583 -104.66288 5393 ft 11 kts 287°
2026-05-04 20:31 39.85583 -104.66411 5395 ft 17 kts 269°
2026-05-04 20:31 39.85583 -104.66549 5393 ft 5 kts 270°
2026-05-04 20:31 39.85583 -104.66584 5393 ft 5 kts 270°
2026-05-04 20:32 39.85584 -104.66631 5393 ft 6 kts 270°
2026-05-04 20:32 39.85585 -104.66688 5393 ft 7 kts 271°
2026-05-04 20:32 39.85586 -104.66757 5393 ft 8 kts 271°
2026-05-04 20:32 39.85587 -104.66837 5386 ft 9 kts 271°
2026-05-04 20:33 39.85588 -104.66927 5385 ft 10 kts 271°
2026-05-04 20:33 39.85559 -104.67004 5384 ft 10 kts 218°
2026-05-04 20:33 39.85523 -104.67075 5387 ft 9 kts 261°
2026-05-04 20:33 39.85520 -104.67153 5386 ft 5 kts 268°
2026-05-04 20:34 39.85519 -104.67199 5385 ft 6 kts 269°
2026-05-04 20:34 39.85517 -104.67246 5393 ft 4 kts 258°
2026-05-04 20:34 39.85501 -104.67266 5387 ft 3 kts 209°
2026-05-04 20:34 39.85478 -104.67275 5387 ft 4 kts 195°
2026-05-04 20:35 39.85471 -104.67277 5390 ft 0 kts 194°
2026-05-04 20:38 39.85455 -104.67282 5391 ft 0 kts 194°